SAS66G ESNS-ESSA

Flight info

Callsign SAS66G
Flight time 1h 2m
Altitude 36000
Route DCT KETEL DCT BODRI DCT SIPRI T31 VACRA VACRA1M
Aircraft A320/M-SDE3FGHIJ1RWXYZ/ALB1

Departure

Time 2026-04-11 06:09
Airport Skellefteå Airport (ESNS)

Arrival

Time 2026-04-11 07:11
Airport Stockholm-Arlanda Airport (ESSA)
Time Latitude Longitude Altitude Speed Heading
2026-04-11 05:46 64.62374 21.06789 160 ft 0 kts 232°
2026-04-11 05:52 64.62374 21.06788 161 ft 0 kts 232°
2026-04-11 06:05 64.62375 21.06774 160 ft 2 kts 269°
2026-04-11 06:05 64.62403 21.06755 160 ft 7 kts 11°
2026-04-11 06:06 64.62560 21.06940 162 ft 15 kts 70°
2026-04-11 06:06 64.62535 21.07229 162 ft 21 kts 105°
2026-04-11 06:06 64.62489 21.07592 160 ft 23 kts 107°
2026-04-11 06:07 64.62439 21.07995 162 ft 27 kts 107°
2026-04-11 06:07 64.62382 21.08458 162 ft 26 kts 106°
2026-04-11 06:07 64.62333 21.08846 160 ft 25 kts 107°
2026-04-11 06:07 64.62285 21.09231 159 ft 25 kts 106°
2026-04-11 06:08 64.62234 21.09635 163 ft 25 kts 106°
2026-04-11 06:08 64.62187 21.10019 163 ft 26 kts 107°
2026-04-11 06:08 64.62151 21.10346 162 ft 20 kts 93°
2026-04-11 06:08 64.62162 21.10564 161 ft 11 kts 121°
2026-04-11 06:09 64.62125 21.10510 161 ft 10 kts 275°
2026-04-11 06:09 64.62182 21.10052 163 ft 69 kts 286°
2026-04-11 06:09 64.62395 21.08356 165 ft 144 kts 286°
2026-04-11 06:09 64.62678 21.06038 903 ft 148 kts 285°
2026-04-11 06:10 64.62966 21.03677 1759 ft 159 kts 283°
2026-04-11 06:10 64.62965 21.01009 2351 ft 177 kts 245°
2026-04-11 06:10 64.62088 20.98794 2946 ft 203 kts 206°
2026-04-11 06:10 64.60627 20.98381 3724 ft 229 kts 173°
2026-04-11 06:11 64.59006 20.99115 4611 ft 249 kts 168°
2026-04-11 06:11 64.57302 21.00065 5867 ft 255 kts 167°
2026-04-11 06:11 64.55575 21.01093 7169 ft 256 kts 167°
2026-04-11 06:11 64.53837 21.02094 8419 ft 259 kts 167°
2026-04-11 06:12 64.52067 21.03076 9612 ft 264 kts 167°
2026-04-11 06:12 64.50262 21.04047 10685 ft 272 kts 167°
2026-04-11 06:12 64.48335 21.05064 11263 ft 294 kts 167°
2026-04-11 06:12 64.46301 21.06126 12129 ft 303 kts 167°
2026-04-11 06:13 64.44220 21.07207 13106 ft 309 kts 167°
2026-04-11 06:13 64.42107 21.08304 14099 ft 314 kts 167°
2026-04-11 06:13 64.39956 21.09422 14999 ft 319 kts 167°
2026-04-11 06:13 64.37777 21.10548 15902 ft 322 kts 167°
2026-04-11 06:14 64.35577 21.11680 16780 ft 326 kts 167°
2026-04-11 06:14 64.33343 21.12828 17662 ft 331 kts 167°
2026-04-11 06:14 64.31081 21.13990 18536 ft 335 kts 167°
2026-04-11 06:14 64.28792 21.15168 19329 ft 339 kts 167°
2026-04-11 06:15 64.26477 21.16358 20153 ft 343 kts 166°
2026-04-11 06:15 64.24141 21.17552 20996 ft 346 kts 166°
2026-04-11 06:15 64.21795 21.18525 21792 ft 350 kts 173°
2026-04-11 06:15 64.19347 21.18492 22571 ft 356 kts 184°
2026-04-11 06:16 64.16902 21.17280 23354 ft 363 kts 195°
2026-04-11 06:16 64.14510 21.15316 24108 ft 368 kts 196°
2026-04-11 06:16 64.12091 21.13322 24771 ft 371 kts 195°
2026-04-11 06:16 64.09650 21.11326 25429 ft 374 kts 195°
2026-04-11 06:17 64.07184 21.09323 26088 ft 377 kts 195°
2026-04-11 06:17 64.04700 21.07312 26714 ft 381 kts 194°
2026-04-11 06:17 64.02190 21.05277 27335 ft 384 kts 194°
2026-04-11 06:17 63.99662 21.03226 27943 ft 387 kts 194°
2026-04-11 06:18 63.97116 21.01161 28537 ft 390 kts 194°
2026-04-11 06:18 63.94544 20.99082 29110 ft 394 kts 194°
2026-04-11 06:18 63.91951 20.96992 29674 ft 397 kts 194°
2026-04-11 06:18 63.89338 20.94890 30241 ft 400 kts 193°
2026-04-11 06:19 63.86704 20.92779 30747 ft 403 kts 193°
2026-04-11 06:19 63.84051 20.90659 31236 ft 406 kts 193°
2026-04-11 06:19 63.81380 20.88523 31734 ft 409 kts 193°
2026-04-11 06:19 63.78685 20.86375 32263 ft 411 kts 193°
2026-04-11 06:20 63.75993 20.84231 32931 ft 410 kts 193°
2026-04-11 06:20 63.73313 20.82096 33647 ft 408 kts 193°
2026-04-11 06:20 63.70645 20.79976 34362 ft 406 kts 193°
2026-04-11 06:20 63.67984 20.77865 34935 ft 404 kts 193°
2026-04-11 06:21 63.65332 20.75771 35435 ft 405 kts 194°
2026-04-11 06:21 63.62704 20.73704 35899 ft 406 kts 194°
2026-04-11 06:21 63.60035 20.71608 36270 ft 408 kts 194°
2026-04-11 06:22 63.54724 20.67439 36365 ft 398 kts 194°
2026-04-11 06:22 63.49524 20.63363 36371 ft 395 kts 194°
2026-04-11 06:23 63.44331 20.59329 36363 ft 396 kts 194°
2026-04-11 06:23 63.39124 20.55299 36366 ft 396 kts 194°
2026-04-11 06:24 63.33918 20.51304 36366 ft 396 kts 194°
2026-04-11 06:24 63.28713 20.47316 36365 ft 396 kts 194°
2026-04-11 06:25 63.23506 20.43328 36364 ft 396 kts 194°
2026-04-11 06:25 63.18297 20.39345 36364 ft 396 kts 194°
2026-04-11 06:26 63.13090 20.35368 36363 ft 396 kts 194°
2026-04-11 06:26 63.07880 20.31408 36361 ft 396 kts 194°
2026-04-11 06:27 63.02670 20.27466 36361 ft 396 kts 194°
2026-04-11 06:27 62.97456 20.23548 36365 ft 396 kts 194°
2026-04-11 06:28 62.92271 20.19690 36360 ft 396 kts 194°
2026-04-11 06:28 62.87052 20.15809 36371 ft 397 kts 194°
2026-04-11 06:29 62.81819 20.11916 36361 ft 397 kts 194°
2026-04-11 06:29 62.76578 20.08030 36351 ft 398 kts 194°
2026-04-11 06:30 62.71330 20.04156 36352 ft 398 kts 194°
2026-04-11 06:30 62.66077 20.00291 36354 ft 399 kts 194°
2026-04-11 06:31 62.60819 19.96442 36376 ft 399 kts 194°
2026-04-11 06:31 62.55552 19.92601 36358 ft 400 kts 194°
2026-04-11 06:32 62.51164 19.89402 36360 ft 401 kts 194°
2026-04-11 06:32 62.45873 19.85569 36355 ft 401 kts 194°
2026-04-11 06:33 62.40581 19.81750 36353 ft 401 kts 194°
2026-04-11 06:33 62.35280 19.77941 36354 ft 402 kts 194°
2026-04-11 06:34 62.29972 19.74147 36364 ft 402 kts 194°
2026-04-11 06:34 62.24655 19.70355 36357 ft 403 kts 194°
2026-04-11 06:35 62.19325 19.66560 36352 ft 404 kts 194°
2026-04-11 06:35 62.13991 19.62789 36353 ft 404 kts 194°
2026-04-11 06:36 62.08649 19.59024 36352 ft 404 kts 194°
2026-04-11 06:36 62.03302 19.55262 36367 ft 405 kts 194°
2026-04-11 06:37 61.97950 19.51512 36351 ft 406 kts 194°
2026-04-11 06:37 61.92623 19.47778 36348 ft 406 kts 194°
2026-04-11 06:38 61.87249 19.44030 36345 ft 407 kts 194°
2026-04-11 06:38 61.81869 19.40300 36350 ft 407 kts 194°
2026-04-11 06:39 61.76489 19.36583 36352 ft 407 kts 194°
2026-04-11 06:39 61.71100 19.32867 36353 ft 408 kts 194°
2026-04-11 06:40 61.65701 19.29179 36348 ft 408 kts 194°
2026-04-11 06:40 61.60305 19.25506 36340 ft 408 kts 194°
2026-04-11 06:41 61.54902 19.21843 36339 ft 408 kts 194°
2026-04-11 06:41 61.49498 19.18168 36334 ft 408 kts 194°
2026-04-11 06:42 61.44085 19.14503 36345 ft 409 kts 195°
2026-04-11 06:42 61.38657 19.10863 36193 ft 410 kts 195°
2026-04-11 06:42 61.35951 19.09058 35906 ft 406 kts 194°
2026-04-11 06:43 61.33269 19.07267 35472 ft 403 kts 194°
2026-04-11 06:43 61.30613 19.05492 35014 ft 400 kts 194°
2026-04-11 06:43 61.27966 19.03722 34525 ft 399 kts 194°
2026-04-11 06:43 61.25332 19.01960 33999 ft 397 kts 194°
2026-04-11 06:44 61.22717 19.00215 33507 ft 393 kts 194°
2026-04-11 06:44 61.20123 18.98492 33027 ft 389 kts 194°
2026-04-11 06:44 61.17557 18.96792 32558 ft 386 kts 194°
2026-04-11 06:44 61.15004 18.95103 32082 ft 384 kts 194°
2026-04-11 06:45 61.12469 18.93425 31626 ft 381 kts 194°
2026-04-11 06:45 61.09951 18.91758 31172 ft 379 kts 194°
2026-04-11 06:45 61.07448 18.90113 30734 ft 376 kts 194°
2026-04-11 06:45 61.04961 18.88487 30277 ft 374 kts 193°
2026-04-11 06:46 61.02491 18.86870 29828 ft 371 kts 194°
2026-04-11 06:46 61.00079 18.85286 29423 ft 367 kts 194°
2026-04-11 06:46 60.97659 18.83697 29019 ft 364 kts 194°
2026-04-11 06:46 60.95259 18.82126 28624 ft 360 kts 194°
2026-04-11 06:47 60.92881 18.80577 28236 ft 357 kts 194°
2026-04-11 06:47 60.90526 18.79044 27852 ft 354 kts 194°
2026-04-11 06:47 60.88185 18.77524 27443 ft 351 kts 194°
2026-04-11 06:47 60.85871 18.76018 27042 ft 348 kts 194°
2026-04-11 06:48 60.83574 18.74521 26618 ft 345 kts 194°
2026-04-11 06:48 60.81296 18.73044 26225 ft 341 kts 194°
2026-04-11 06:48 60.79039 18.71590 25801 ft 339 kts 194°
2026-04-11 06:48 60.76799 18.70151 25381 ft 336 kts 194°
2026-04-11 06:49 60.74574 18.68725 24948 ft 334 kts 194°
2026-04-11 06:49 60.72363 18.67307 24509 ft 332 kts 194°
2026-04-11 06:49 60.70160 18.65891 24078 ft 331 kts 194°
2026-04-11 06:49 60.67967 18.64486 23596 ft 330 kts 195°
2026-04-11 06:50 60.65790 18.63094 23147 ft 326 kts 194°
2026-04-11 06:50 60.63634 18.61717 22707 ft 323 kts 194°
2026-04-11 06:50 60.61499 18.60352 22273 ft 320 kts 194°
2026-04-11 06:50 60.59379 18.58997 21840 ft 318 kts 194°
2026-04-11 06:51 60.57277 18.57658 21412 ft 316 kts 194°
2026-04-11 06:51 60.55185 18.56328 20985 ft 314 kts 194°
2026-04-11 06:51 60.53108 18.55010 20561 ft 312 kts 194°
2026-04-11 06:51 60.51041 18.53702 20136 ft 311 kts 194°
2026-04-11 06:52 60.48982 18.52398 19709 ft 309 kts 194°
2026-04-11 06:52 60.46929 18.51098 19287 ft 308 kts 194°
2026-04-11 06:52 60.44882 18.49806 18857 ft 308 kts 194°
2026-04-11 06:52 60.42839 18.48522 18406 ft 307 kts 194°
2026-04-11 06:53 60.40805 18.47242 17965 ft 305 kts 194°
2026-04-11 06:53 60.38783 18.45968 17545 ft 303 kts 194°
2026-04-11 06:53 60.36776 18.44703 17125 ft 301 kts 195°
2026-04-11 06:53 60.34779 18.43448 16711 ft 300 kts 194°
2026-04-11 06:54 60.32821 18.42225 16304 ft 298 kts 194°
2026-04-11 06:54 60.30821 18.40978 15893 ft 297 kts 195°
2026-04-11 06:54 60.28877 18.39772 15491 ft 295 kts 193°
2026-04-11 06:54 60.26870 18.39074 15145 ft 291 kts 181°
2026-04-11 06:55 60.24845 18.38916 14942 ft 294 kts 180°
2026-04-11 06:55 60.22799 18.38751 14705 ft 294 kts 180°
2026-04-11 06:55 60.20757 18.38578 14474 ft 294 kts 181°
2026-04-11 06:55 60.18720 18.38402 14239 ft 293 kts 181°
2026-04-11 06:56 60.16685 18.38226 13988 ft 292 kts 181°
2026-04-11 06:56 60.14661 18.38055 13742 ft 291 kts 181°
2026-04-11 06:56 60.12638 18.37824 13494 ft 291 kts 184°
2026-04-11 06:56 60.10637 18.37323 13222 ft 290 kts 186°
2026-04-11 06:57 60.08645 18.36740 12956 ft 289 kts 187°
2026-04-11 06:57 60.06662 18.36126 12689 ft 288 kts 187°
2026-04-11 06:57 60.04686 18.35508 12430 ft 287 kts 187°
2026-04-11 06:57 60.02713 18.34900 12165 ft 287 kts 187°
2026-04-11 06:58 60.00746 18.34302 11906 ft 286 kts 187°
2026-04-11 06:58 59.98787 18.33714 11653 ft 285 kts 186°
2026-04-11 06:58 59.96825 18.33134 11394 ft 284 kts 186°
2026-04-11 06:58 59.94872 18.32560 11136 ft 283 kts 186°
2026-04-11 06:59 59.92926 18.31981 10884 ft 282 kts 186°
2026-04-11 06:59 59.90985 18.31402 10635 ft 282 kts 186°
2026-04-11 06:59 59.89049 18.30830 10391 ft 281 kts 186°
2026-04-11 06:59 59.87123 18.30263 10189 ft 279 kts 186°
2026-04-11 07:00 59.85203 18.29699 10055 ft 279 kts 186°
2026-04-11 07:00 59.83284 18.29130 9917 ft 279 kts 186°
2026-04-11 07:00 59.81369 18.28559 9777 ft 278 kts 186°
2026-04-11 07:00 59.79455 18.27989 9641 ft 278 kts 186°
2026-04-11 07:01 59.77547 18.27427 9505 ft 277 kts 186°
2026-04-11 07:01 59.75639 18.26871 9369 ft 277 kts 186°
2026-04-11 07:01 59.73734 18.26318 9228 ft 277 kts 186°
2026-04-11 07:01 59.71830 18.25764 9104 ft 276 kts 186°
2026-04-11 07:02 59.69931 18.25210 8961 ft 276 kts 186°
2026-04-11 07:02 59.68057 18.24661 8830 ft 275 kts 186°
2026-04-11 07:02 59.66140 18.24102 8697 ft 275 kts 186°
2026-04-11 07:02 59.64276 18.23559 8559 ft 274 kts 186°
2026-04-11 07:03 59.62392 18.23013 8435 ft 274 kts 186°
2026-04-11 07:03 59.60510 18.22469 8304 ft 273 kts 186°
2026-04-11 07:03 59.58632 18.21929 8169 ft 272 kts 186°
2026-04-11 07:03 59.56757 18.21389 8028 ft 272 kts 186°
2026-04-11 07:04 59.54895 18.20715 7604 ft 273 kts 194°
2026-04-11 07:04 59.53169 18.19153 7214 ft 275 kts 211°
2026-04-11 07:04 59.51712 18.16660 6743 ft 281 kts 227°
2026-04-11 07:04 59.50526 18.13614 6303 ft 282 kts 230°
2026-04-11 07:05 59.49339 18.10592 5941 ft 278 kts 230°
2026-04-11 07:05 59.48141 18.07574 5563 ft 277 kts 230°
2026-04-11 07:05 59.46968 18.04639 5347 ft 269 kts 230°
2026-04-11 07:05 59.45841 18.01818 5199 ft 253 kts 230°
2026-04-11 07:06 59.44807 17.99224 5084 ft 230 kts 230°
2026-04-11 07:06 59.43861 17.96847 4958 ft 211 kts 230°
2026-04-11 07:06 59.43033 17.94551 4870 ft 205 kts 244°
2026-04-11 07:06 59.42911 17.91856 4746 ft 200 kts 285°
2026-04-11 07:07 59.43667 17.89637 4561 ft 197 kts 324°
2026-04-11 07:07 59.44947 17.88787 4029 ft 199 kts
2026-04-11 07:07 59.46316 17.89167 3593 ft 199 kts 13°
2026-04-11 07:07 59.47658 17.89665 3288 ft 194 kts 13°
2026-04-11 07:08 59.48964 17.90139 3010 ft 188 kts 13°
2026-04-11 07:08 59.50239 17.90599 2751 ft 185 kts 13°
2026-04-11 07:08 59.51483 17.91047 2494 ft 183 kts 13°
2026-04-11 07:08 59.52729 17.91495 2238 ft 181 kts 14°
2026-04-11 07:09 59.53954 17.91936 1979 ft 177 kts 15°
2026-04-11 07:09 59.55133 17.92359 1732 ft 166 kts 15°
2026-04-11 07:09 59.56249 17.92761 1502 ft 161 kts 15°
2026-04-11 07:09 59.57339 17.93156 1276 ft 158 kts 14°
2026-04-11 07:10 59.59358 17.93883 843 ft 135 kts 13°
2026-04-11 07:10 59.60248 17.94205 660 ft 126 kts 12°
2026-04-11 07:10 59.61090 17.94510 497 ft 121 kts 11°
2026-04-11 07:11 59.61914 17.94797 347 ft 120 kts 12°
2026-04-11 07:11 59.62723 17.95105 182 ft 118 kts 12°
2026-04-11 07:11 59.63464 17.95380 122 ft 89 kts 11°
2026-04-11 07:11 59.63923 17.95546 114 ft 42 kts 10°
2026-04-11 07:12 59.64119 17.95529 111 ft 22 kts 345°
2026-04-11 07:12 59.64290 17.95421 108 ft 29 kts 340°
2026-04-11 07:12 59.64463 17.95330 105 ft 22 kts
2026-04-11 07:12 59.64636 17.95393 105 ft 28 kts 11°
2026-04-11 07:13 59.64843 17.95469 108 ft 32 kts 10°
2026-04-11 07:13 59.65025 17.95516 113 ft 21 kts 356°
2026-04-11 07:13 59.65174 17.95445 118 ft 23 kts 344°
2026-04-11 07:13 59.65330 17.95363 124 ft 22 kts 345°
2026-04-11 07:14 59.65493 17.95280 124 ft 27 kts 345°
2026-04-11 07:14 59.65655 17.95191 129 ft 22 kts 345°
2026-04-11 07:14 59.65748 17.95056 126 ft 20 kts 283°
2026-04-11 07:14 59.65714 17.94747 122 ft 27 kts 257°
2026-04-11 07:15 59.65671 17.94400 124 ft 27 kts 256°
2026-04-11 07:15 59.65622 17.94018 120 ft 31 kts 256°
2026-04-11 07:15 59.65574 17.93637 111 ft 27 kts 256°
2026-04-11 07:15 59.65531 17.93294 111 ft 25 kts 257°
2026-04-11 07:16 59.65489 17.92979 112 ft 26 kts 252°
2026-04-11 07:16 59.65440 17.92741 112 ft 15 kts 244°
2026-04-11 07:16 59.65359 17.92706 112 ft 16 kts 155°
2026-04-11 07:16 59.65281 17.92789 112 ft 8 kts 152°
2026-04-11 07:17 59.65260 17.92827 112 ft 4 kts 108°
2026-04-11 07:17 59.65278 17.92899 110 ft 7 kts 60°
2026-04-11 07:17 59.65289 17.92958 110 ft 1 kts 71°
2026-04-11 07:17 59.65290 17.92961 110 ft 0 kts 71°